This demonstration page uses our WeatherBlox Daily Observations layout. Learn more.

Left ArrowRight Arrow

Hourly Observations for April 22, 2018

Temp ( °F °C ) Dew Point ( °F °C ) Humidity (%) Winds ( mph kmh ) Pressure ( in mb ) Visibility ( mi km ) Precip ( " mm )
12:53 am 00:53 Cloudy with Light Rain 41 5 40 4.4 96 96 N 5 7 30.29 1026 6 10 0.01 0.25
1:53 am 01:53 Mostly Clear with Mist and Fog 40 4.4 39 3.9 97 97 NW 6 9 30.26 1025 5 8 0.01 0.25
2:53 am 02:53 Partly Cloudy with Mist and Fog 39 3.9 39 3.9 100 100 NNW 7 11 30.24 1024 6 10 0.00 0.00
3:53 am 03:53 Clear with Mist and Fog 39 3.9 39 3.9 100 100 NNW 8 13 30.24 1024 6 10 0.00 0.00
4:53 am 04:53 Cloudy 40 4.4 39 3.9 97 97 NNW 9 15 30.24 1024 7 11 0.00 0.00
5:53 am 05:53 Cloudy 40 4.4 39 3.9 97 97 NNW 10 17 30.24 1024 7 11 0.00 0.00
6:53 am 06:53 Cloudy with Mist and Fog 40 4.4 39 3.9 97 97 N 10 17 30.26 1025 6 10 0.00 0.00
7:53 am 07:53 Cloudy 41 5 39 3.9 93 93 N 13 20 30.27 1025 8 13 0.00 0.00
8:53 am 08:53 Cloudy 44 6.7 40 4.4 85 85 NNE 10 17 30.26 1025 10 16 0.00 0.00
9:53 am 09:53 Sunny 48 8.9 40 4.4 74 74 NNE 15 24 30.26 1025 10 16 0.00 0.00
10:53 am 10:53 Sunny 52 11.1 39 3.9 61 61 NE 12 19 30.27 1025 10 16 0.00 0.00
11:53 am 11:53 Sunny 55 12.8 38 3.3 53 53 ENE 10 17 30.25 1025 10 16 0.00 0.00
12:53 pm 12:53 Sunny 58 14.4 36 2.2 44 44 ENE 10 17 30.24 1024 10 16 0.00 0.00
1:53 pm 13:53 Sunny 61 16.1 38 3.3 43 43 NNE 9 15 30.21 1023 10 16 0.00 0.00
2:53 pm 14:53 Sunny 62 16.7 38 3.3 41 41 NE 12 19 30.19 1022 10 16 0.00 0.00
3:53 pm 15:53 Sunny 64 17.8 37 2.8 37 37 NNE 8 13 30.16 1021 10 16 0.00 0.00
4:53 pm 16:53 Mostly Sunny 65 18.3 37 2.8 36 36 NNE 8 13 30.15 1021 10 16 0.00 0.00
5:53 pm 17:53 Sunny 64 17.8 36 2.2 35 35 ESE 10 17 30.14 1021 10 16 0.00 0.00
6:53 pm 18:53 Sunny 61 16.1 35 1.7 38 38 SE 14 22 30.14 1021 10 16 0.00 0.00
7:53 pm 19:53 Partly Cloudy 59 15 37 2.8 44 44 SE 9 15 30.16 1021 10 16 0.00 0.00
8:53 pm 20:53 Cloudy 57 13.9 37 2.8 47 47 ESE 5 7 30.17 1022 10 16 0.00 0.00
9:53 pm 21:53 Cloudy 56 13.3 38 3.3 51 51 SE 3 6 30.18 1022 10 16 0.00 0.00
10:53 pm 22:53 Cloudy 53 11.7 42 5.6 66 66 Calm 30.18 1022 10 16 0.00 0.00
11:53 pm 23:53 Cloudy 51 10.6 43 6.1 74 74 Calm 30.17 1022 10 16 0.00 0.00

Powered by AerisWeather